Regional Weather Roundup
Issued by NWS Midland/Odessa, TX

Skip options and go directly to product.
Home | Oldest Version | Next Version | Current Version | All | Text Only | Save Text | Print | Product List | Glossary On

Skip product version selection by date and time.   
873
ASUS44 KMAF 221302
RWRMAF
MIDLAND AREA WEATHER ROUNDUP
NATIONAL WEATHER SERVICE MIDLAND TX
800 AM CDT WED OCT 22 2014

...IN SOUTHWEST TEXAS AND SOUTHEAST NEW MEXICO...

CITY           SKY/WX    TMP DP  RH WIND       PRES   REMARKS
ALPINE         CLOUDY    60  57  91 CALM      30.19R
ANDREWS        CLOUDY    62  59  90 SE5       30.11S
ARTESIA        NOT AVBL
BIG SPRING     CLOUDY    61  56  84 S14G20    30.14R
CARLSBAD       CLOUDY    60  58  92 SW3       30.09R FOG
DRYDEN           N/A     65  64  97 NE5       30.07R
FORT STOCKTON  CLOUDY    62  60  93 SE10      30.09R
GUAD PASS      CLOUDY    55  53  93 SW9       30.18R
HOBBS          CLOUDY    59  59 100 S6        30.12S
MARFA          CLOUDY    57  57 100 CALM      30.17R
MIDLAND AIRPK  CLOUDY    64  60  84 SE8       30.12R
MIDLAND INTL   MOCLDY    64  60  87 SE10      30.10R
ODESSA         CLOUDY    63  59  87 S8        30.11R
PECOS          MOCLDY    59  58  94 CALM      30.07S
PRESIDIO       CLOUDY    65  61  86 CALM      30.06S
SEMINOLE       CLOUDY    61  60  95 S6        30.12R
SNYDER         CLOUDY    60  56  85 SE6       30.12R
WINK           CLOUDY    64  61  90 SE10      30.07R
$$
...OTHER STATIONS IN TEXAS...

CITY           SKY/WX    TMP DP  RH WIND       PRES   REMARKS
ABILENE        CLOUDY    64  51  62 S6        30.11R
AMARILLO       RAIN      58  56  93 SW9       30.11R FOG
AUSTIN         CLOUDY    59  57  93 CALM      30.09R
BROWNSVILLE    HVY RAIN  75  72  90 SW8G21    29.98R FOG
CORPUS CHRISTI PTCLDY    67  65  93 N9        30.02R
DALLAS FTW     PTCLDY    62  59  90 E3        30.12R FOG
DEL RIO        CLOUDY    68  57  68 E7        30.05R
EL PASO        CLOUDY    61  55  81 N6        30.09R
HOUSTON INT    PTCLDY    62  60  93 NE7       30.08R
LUBBOCK        LGT RAIN  61  59  93 S3        30.11S FOG
SAN ANGELO     LGT RAIN  62  55  77 CALM      30.11R
SAN ANTONIO    MOCLDY    65  53  65 CALM      30.09R
WACO           PTCLDY    58  56  93 N3        30.11R
WICHITA FALLS  NOT AVBL
$$
...OTHER LOCATIONS IN NEW MEXICO...

CITY           SKY/WX    TMP DP  RH WIND       PRES   REMARKS
ALAMAGORDO     NOT AVBL
ALBUQUERQUE    PTCLDY    53  47  79 E3        30.16R
CANNON AFB     MOCLDY    56  55  96 S3        30.12R FOG
CLOVIS         CLOUDY    55  54  94 S6        30.15R
HOLLOMAN AFB   PTCLDY    49  48  95 NE6       30.10S
ROSWELL        FOG       59  58  96 SW5       30.10R VSB 1/2
RUIDOSO        CLEAR     46  45  93 CALM      30.22R
SANTA FE       FOG       47  46  97 CALM      30.19R VSB 1/2
TRUTH OR CONSE CLEAR     50  48  93 W5        30.13R
TUCUMCARI      PTCLDY    60  53  77 SW14      30.08S
$$

USA.gov is the U.S. government's official web portal to all federal, state and local government web resources and services.